Buzzards Bay, MA

5:38 AM EST on February 26, 2017 (GMT -0500)
Cape Cod Coast Guard Air Station

Weather History for KFMH - March, 2015

Change the Weather History Date:

Tuesday, March 17, 2015

  Actual Average Record
Temperature  
Mean Temperature 38 °F -  
Max Temperature 48 °F 41 °F 68 °F (2003)
Min Temperature 28 °F 26 °F 12 °F (2014)
Degree Days  
Heating Degree Days 27    
Moisture  
Dew Point 30 °F    
Average Humidity 80    
Maximum Humidity 100    
Minimum Humidity 26    
Precipitation  
Precipitation 0.08 in - - ()
Sea Level Pressure  
Sea Level Pressure 29.58 in    
Wind  
Wind Speed 9 mph (WSW)    
Max Wind Speed 32 mph    
Max Gust Speed 45 mph    
Visibility 7 miles    
Events Rain    
Averages and records for this station are not official NWS values.
T = Trace of Precipitation, MM = Missing Value Source: NWS Daily Summary

Daily Weather History Graph

Daily Weather History Graph

Search for Another Location

Airport or City:

Trip Planner

Search our weather history database for the weather conditions in past years. The results will help you decide how hot, cold, wet, or windy it might be!

Date:

Astronomy

Mar. 17, 2015 Rise Set
Actual Time 6:50 AM EDT 6:50 PM EDT
Civil Twilight 6:23 AM EDT 7:18 PM EDT
Nautical Twilight 5:51 AM EDT 7:50 PM EDT
Astronomical Twilight 5:18 AM EDT 8:23 PM EDT
Moon 4:50 AM EDT (3/17) 3:49 PM EDT (3/17)
Length of Visible Light 12h 55m
Length of Day
11h 59m
Waning Crescent, 11% of the Moon is Illuminated
Mar 17
Waning Crescent
Mar 20
New
Mar 27
First Quarter
Apr 4
Full
Apr 11
Last Quarter

Hourly Weather History & Observations

Time (EDT) Temp. Windchill Dew Point Humidity Pressure Visibility Wind Dir Wind Speed Gust Speed Precip Events Conditions
12:15 AM 32.0 °F 26.4 °F 30.2 °F 93% 29.79 in 10.0 mi SSW 5.8 mph - N/A   Overcast
12:35 AM 32.0 °F 25.6 °F 30.2 °F 93% 29.77 in 10.0 mi SSW 6.9 mph - N/A   Overcast
12:55 AM 32.0 °F 25.6 °F 30.2 °F 93% 29.76 in 10.0 mi SW 6.9 mph - N/A   Overcast
1:15 AM 32.0 °F 26.4 °F 30.2 °F 93% 29.76 in 10.0 mi SSW 5.8 mph - N/A   Overcast
1:35 AM 32.0 °F 25.6 °F 30.2 °F 93% 29.76 in 10.0 mi SW 6.9 mph - N/A   Overcast
1:55 AM 33.8 °F 27.7 °F 30.2 °F 87% 29.76 in 10.0 mi SW 6.9 mph - N/A   Overcast
2:15 AM 33.8 °F 28.6 °F 30.2 °F 87% 29.75 in 10.0 mi SW 5.8 mph - N/A   Overcast
2:35 AM 33.8 °F 28.6 °F 30.2 °F 87% 29.74 in 10.0 mi SSW 5.8 mph - N/A   Overcast
2:55 AM 33.8 °F 28.6 °F 30.2 °F 87% 29.72 in 10.0 mi SSW 5.8 mph - N/A   Overcast
3:15 AM 33.8 °F 28.6 °F 30.2 °F 87% 29.70 in 10.0 mi SSW 5.8 mph - N/A   Overcast
3:35 AM 33.8 °F 29.6 °F 30.2 °F 87% 29.68 in 10.0 mi South 4.6 mph - N/A   Overcast
3:55 AM 33.8 °F 28.6 °F 30.2 °F 87% 29.68 in 10.0 mi South 5.8 mph - N/A   Overcast
4:15 AM 33.8 °F 28.6 °F 32.0 °F 93% 29.68 in 10.0 mi South 5.8 mph - N/A   Overcast
4:35 AM 33.8 °F 28.6 °F 32.0 °F 93% 29.66 in 10.0 mi South 5.8 mph - N/A   Overcast
4:55 AM 33.8 °F 28.6 °F 32.0 °F 93% 29.66 in 10.0 mi SSW 5.8 mph - N/A   Overcast
5:15 AM 33.8 °F 28.6 °F 32.0 °F 93% 29.65 in 10.0 mi SSW 5.8 mph - N/A   Overcast
5:35 AM 35.6 °F 29.9 °F 33.8 °F 93% 29.64 in 10.0 mi SSW 6.9 mph - N/A   Overcast
5:55 AM 35.6 °F 30.7 °F 33.8 °F 93% 29.63 in 10.0 mi South 5.8 mph - N/A   Overcast
6:15 AM 35.6 °F 30.7 °F 33.8 °F 93% 29.64 in 8.0 mi SW 5.8 mph - N/A   Overcast
6:35 AM 35.6 °F 31.7 °F 33.8 °F 93% 29.65 in 7.0 mi SW 4.6 mph - N/A   Light Drizzle
6:55 AM 35.6 °F 30.7 °F 33.8 °F 93% 29.64 in 4.0 mi SSW 5.8 mph - N/A Rain Light Rain
7:15 AM 35.6 °F 30.7 °F 33.8 °F 93% 29.63 in 3.0 mi South 5.8 mph - N/A Rain Light Rain
7:35 AM 35.6 °F 30.7 °F 33.8 °F 93% 29.61 in 2.5 mi South 5.8 mph - N/A Rain Light Rain
7:55 AM 35.6 °F 29.9 °F 33.8 °F 93% 29.59 in 2.5 mi South 6.9 mph - N/A Rain Light Rain
8:15 AM 35.6 °F 28.6 °F 35.6 °F 100% 29.59 in 1.8 mi SSW 9.2 mph - N/A Rain Light Rain
8:35 AM 35.6 °F 29.2 °F 35.6 °F 100% 29.58 in 2.0 mi South 8.1 mph - N/A Rain Light Rain
8:55 AM 35.6 °F 28.6 °F 35.6 °F 100% 29.57 in 1.8 mi SSW 9.2 mph - N/A Rain Light Rain
9:15 AM 37.4 °F 30.3 °F 35.6 °F 93% 29.56 in 1.8 mi SSW 10.4 mph - N/A   Light Drizzle
9:35 AM 37.4 °F 32.1 °F 35.6 °F 93% 29.54 in 2.0 mi SSW 6.9 mph - N/A Rain Light Rain
9:55 AM 37.4 °F 32.1 °F 35.6 °F 93% 29.54 in 1.8 mi SSW 6.9 mph - N/A Rain Light Rain
10:15 AM 37.4 °F 32.8 °F 37.4 °F 100% 29.53 in 1.2 mi SSW 5.8 mph - N/A Rain Light Rain
10:35 AM 37.4 °F 32.8 °F 37.4 °F 100% 29.53 in 1.8 mi SW 5.8 mph - N/A Rain Light Rain
10:55 AM 39.2 °F 31.6 °F 37.4 °F 93% 29.52 in 2.0 mi SW 12.7 mph - N/A Rain Light Rain
11:15 AM 39.2 °F 30.5 °F 39.2 °F 100% 29.51 in 1.8 mi WSW 16.1 mph - N/A Rain Light Rain
11:35 AM 39.2 °F 31.2 °F 39.2 °F 100% 29.49 in 2.0 mi SW 13.8 mph 19.6 mph N/A Rain Light Rain
11:55 AM 39.2 °F 32.0 °F 37.4 °F 93% 29.49 in 3.0 mi WSW 11.5 mph 18.4 mph N/A Rain Light Rain
12:15 PM 39.2 °F 33.6 °F 37.4 °F 93% 29.47 in 2.0 mi WSW 8.1 mph - N/A Rain Light Rain
12:35 PM 39.2 °F 34.2 °F 39.2 °F 100% 29.46 in 2.0 mi SW 6.9 mph - N/A Rain Light Rain
12:55 PM 39.2 °F 33.6 °F 39.2 °F 100% 29.44 in 1.8 mi SW 8.1 mph - N/A Rain Light Rain
1:15 PM 41.0 °F 38.0 °F 39.2 °F 93% 29.43 in 1.2 mi WSW 4.6 mph - N/A   Overcast
1:35 PM 41.0 °F 38.0 °F 39.2 °F 93% 29.43 in 2.0 mi WSW 4.6 mph - N/A   Overcast
1:55 PM 41.0 °F 37.1 °F 39.2 °F 93% 29.42 in 2.0 mi WSW 5.8 mph - N/A   Overcast
2:15 PM 41.0 °F 38.0 °F 41.0 °F 100% 29.40 in 2.0 mi SW 4.6 mph - N/A   Overcast
2:35 PM 42.8 °F 37.5 °F 41.0 °F 93% 29.39 in 3.0 mi WSW 9.2 mph - N/A   Mostly Cloudy
2:55 PM 42.8 °F 38.6 °F 41.0 °F 93% 29.39 in 3.0 mi West 6.9 mph - N/A   Mostly Cloudy
3:15 PM 42.8 °F 38.6 °F 41.0 °F 93% 29.39 in 4.0 mi West 6.9 mph - N/A   Mostly Cloudy
3:35 PM 42.8 °F 38.0 °F 41.0 °F 93% 29.38 in 4.0 mi West 8.1 mph - N/A   Mostly Cloudy
3:55 PM 44.6 °F 40.7 °F 42.8 °F 93% 29.38 in 6.0 mi West 6.9 mph 13.8 mph N/A   Mostly Cloudy
4:15 PM 46.4 °F 40.7 °F 41.0 °F 81% 29.38 in 10.0 mi WNW 12.7 mph - N/A   Partly Cloudy
4:35 PM 48.2 °F - 37.4 °F 66% 29.38 in 10.0 mi WNW 21.9 mph 28.8 mph N/A   Clear
4:55 PM 48.2 °F - 35.6 °F 62% 29.39 in 10.0 mi WNW 16.1 mph 23.0 mph N/A   Clear
5:15 PM 48.2 °F - 35.6 °F 62% 29.39 in 10.0 mi WNW 15.0 mph - N/A   Scattered Clouds
5:35 PM 48.2 °F - 33.8 °F 58% 29.40 in 10.0 mi WNW 19.6 mph - N/A   Mostly Cloudy
5:55 PM 46.4 °F 36.9 °F 30.2 °F 53% 29.42 in 10.0 mi WNW 32.2 mph 39.1 mph N/A   Mostly Cloudy
6:15 PM 39.2 °F 29.3 °F 30.2 °F 70% 29.48 in 9.0 mi NW 20.7 mph 44.9 mph N/A Rain Light Rain
6:35 PM 39.2 °F 29.6 °F 30.2 °F 70% 29.49 in 10.0 mi NW 19.6 mph 28.8 mph N/A   Overcast
6:55 PM 39.2 °F 29.8 °F 28.4 °F 65% 29.51 in 10.0 mi NW 18.4 mph 27.6 mph N/A   Overcast
7:15 PM 37.4 °F 26.6 °F 28.4 °F 70% 29.53 in 10.0 mi NW 21.9 mph 34.5 mph N/A Rain Light Rain
7:35 PM 37.4 °F 27.8 °F 26.6 °F 65% 29.55 in 10.0 mi NNW 17.3 mph 25.3 mph N/A   Mostly Cloudy
7:55 PM 35.6 °F 24.0 °F 21.2 °F 56% 29.57 in 10.0 mi NW 23.0 mph 36.8 mph N/A   Mostly Cloudy
8:15 PM 33.8 °F 22.8 °F 17.6 °F 52% 29.61 in 10.0 mi NNW 18.4 mph 26.5 mph N/A   Mostly Cloudy
8:35 PM 32.0 °F 20.1 °F 12.2 °F 44% 29.65 in 10.0 mi NNW 19.6 mph 29.9 mph N/A   Partly Cloudy
8:55 PM 32.0 °F 19.5 °F 8.6 °F 38% 29.66 in 10.0 mi NW 21.9 mph 35.7 mph N/A   Clear
9:15 PM 30.2 °F 18.5 °F 8.6 °F 40% 29.68 in 10.0 mi NNW 17.3 mph 40.3 mph N/A   Clear
9:35 PM 30.2 °F 19.3 °F 8.6 °F 40% 29.69 in 10.0 mi NNW 15.0 mph 29.9 mph N/A   Clear
9:55 PM 30.2 °F 19.8 °F 8.6 °F 40% 29.70 in 10.0 mi NNW 13.8 mph 21.9 mph N/A   Clear
10:35 PM 30.2 °F 19.3 °F 6.8 °F 37% 29.71 in 10.0 mi NNW 15.0 mph 31.1 mph N/A   Clear
10:55 PM 30.2 °F 19.3 °F 6.8 °F 37% 29.72 in 10.0 mi NNW 15.0 mph 27.6 mph N/A   Clear
11:15 PM 30.2 °F 18.9 °F 6.8 °F 37% 29.73 in 10.0 mi NNW 16.1 mph 25.3 mph N/A   Clear
11:35 PM 28.4 °F 18.5 °F 6.8 °F 40% 29.73 in 10.0 mi NW 11.5 mph 21.9 mph N/A   Clear
11:55 PM 28.4 °F 18.5 °F 6.8 °F 40% 29.73 in 10.0 mi NW 11.5 mph 23.0 mph N/A   Clear